AAL10 KLAX-KJFK

Flight info

Callsign AAL10
Flight time N/A
Altitude 39000
Route DOTSS2 CLEEE PKE GUP KK45A ROKNE BUM VHP KI63Q KLYNE Q29 WWSHR JHW Q476 WLKES
Aircraft B772/H-SDE2E3FGHIJ5LORVWXY/LB1D1

Departure

Time 2026-05-04 07:43
Airport Los Angeles International Airport (KLAX)

Arrival

Time N/A
Airport John F. Kennedy International Airport (KJFK)
Time Latitude Longitude Altitude Speed Heading
2026-05-04 07:24 33.94105 -118.40746 97 ft 0 kts 69°
2026-05-04 07:33 33.94104 -118.40749 97 ft 2 kts 69°
2026-05-04 07:33 33.94094 -118.40778 99 ft 4 kts 69°
2026-05-04 07:34 33.94086 -118.40803 95 ft 4 kts 75°
2026-05-04 07:34 33.94088 -118.40828 95 ft 4 kts 141°
2026-05-04 07:34 33.94105 -118.40838 98 ft 2 kts 173°
2026-05-04 07:34 33.94080 -118.40834 99 ft 4 kts 173°
2026-05-04 07:35 33.94053 -118.40830 98 ft 4 kts 173°
2026-05-04 07:35 33.94026 -118.40826 99 ft 4 kts 173°
2026-05-04 07:35 33.94003 -118.40823 98 ft 1 kts 173°
2026-05-04 07:38 33.93958 -118.40816 99 ft 9 kts 173°
2026-05-04 07:38 33.93895 -118.40789 99 ft 10 kts 138°
2026-05-04 07:38 33.93838 -118.40737 101 ft 10 kts 146°
2026-05-04 07:38 33.93811 -118.40660 102 ft 11 kts 86°
2026-05-04 07:39 33.93820 -118.40567 100 ft 12 kts 83°
2026-05-04 07:39 33.93830 -118.40465 100 ft 13 kts 83°
2026-05-04 07:39 33.93844 -118.40320 100 ft 21 kts 83°
2026-05-04 07:39 33.93864 -118.40140 103 ft 19 kts 83°
2026-05-04 07:40 33.93880 -118.39983 101 ft 19 kts 83°
2026-05-04 07:40 33.93896 -118.39826 103 ft 19 kts 83°
2026-05-04 07:40 33.93912 -118.39668 101 ft 19 kts 83°
2026-05-04 07:40 33.93928 -118.39511 100 ft 19 kts 82°
2026-05-04 07:41 33.93945 -118.39354 100 ft 19 kts 82°
2026-05-04 07:41 33.93961 -118.39201 100 ft 19 kts 83°
2026-05-04 07:41 33.93978 -118.39045 98 ft 19 kts 85°
2026-05-04 07:41 33.93991 -118.38887 100 ft 19 kts 83°
2026-05-04 07:42 33.94006 -118.38731 99 ft 19 kts 83°
2026-05-04 07:42 33.94023 -118.38573 101 ft 19 kts 82°
2026-05-04 07:42 33.94040 -118.38422 103 ft 18 kts 83°
2026-05-04 07:42 33.93976 -118.38331 104 ft 18 kts 194°
2026-05-04 07:43 33.93936 -118.38495 106 ft 41 kts 263°
2026-05-04 07:43 33.93862 -118.39238 102 ft 134 kts 263°
2026-05-04 07:43 33.93740 -118.40532 493 ft 171 kts 262°
2026-05-04 07:43 33.93588 -118.42007 1615 ft 173 kts 262°
2026-05-04 07:44 33.93438 -118.43421 2473 ft 172 kts 263°
2026-05-04 07:44 33.93291 -118.44923 2986 ft 188 kts 264°
2026-05-04 07:44 33.93038 -118.46561 3127 ft 212 kts 248°
2026-05-04 07:44 33.92062 -118.47983 3457 ft 231 kts 223°
2026-05-04 07:45 33.90835 -118.49350 3870 ft 251 kts 227°
2026-05-04 07:45 33.89666 -118.50951 4672 ft 257 kts 231°
2026-05-04 07:45 33.88517 -118.52632 5530 ft 262 kts 231°
2026-05-04 07:45 33.87351 -118.54321 6488 ft 261 kts 230°
2026-05-04 07:46 33.85906 -118.55661 7156 ft 270 kts 202°
2026-05-04 07:46 33.84038 -118.55942 8015 ft 276 kts 176°
2026-05-04 07:46 33.82150 -118.55490 8766 ft 280 kts 170°
2026-05-04 07:46 33.80227 -118.54955 9571 ft 284 kts 171°
2026-05-04 07:47 33.78293 -118.54417 10385 ft 289 kts 171°
2026-05-04 07:47 33.76252 -118.53859 10685 ft 314 kts 171°
2026-05-04 07:47 33.74025 -118.53259 10919 ft 341 kts 171°
2026-05-04 07:49 33.65628 -118.38279 15355 ft 410 kts 114°
2026-05-04 07:49 33.64686 -118.35022 16058 ft 416 kts 112°
2026-05-04 07:49 33.64209 -118.31546 16478 ft 432 kts 95°
2026-05-04 07:50 33.64255 -118.27863 17029 ft 446 kts 92°
2026-05-04 07:50 33.64341 -118.24110 17783 ft 455 kts 92°
2026-05-04 07:50 33.64408 -118.20325 18508 ft 462 kts 93°
2026-05-04 07:50 33.64448 -118.16437 19197 ft 469 kts 94°
2026-05-04 07:51 33.64465 -118.12501 19957 ft 473 kts 94°
2026-05-04 07:51 33.64468 -118.08535 20796 ft 477 kts 95°
2026-05-04 07:51 33.64463 -118.04526 21545 ft 481 kts 95°
2026-05-04 07:51 33.64454 -118.00488 22271 ft 487 kts 96°
2026-05-04 07:52 33.64445 -117.96391 22958 ft 494 kts 96°
2026-05-04 07:52 33.64437 -117.92244 23640 ft 499 kts 96°
2026-05-04 07:52 33.64430 -117.88063 24231 ft 504 kts 96°
2026-05-04 07:52 33.64420 -117.83829 24779 ft 510 kts 96°
2026-05-04 07:53 33.64416 -117.82209 24976 ft 512 kts 96°
2026-05-04 07:54 33.69532 -117.53039 28115 ft 557 kts 81°
2026-05-04 07:55 33.70400 -117.48490 28563 ft 562 kts 81°
2026-05-04 07:55 33.71263 -117.43894 28978 ft 565 kts 81°
2026-05-04 07:55 33.72128 -117.39281 29441 ft 567 kts 81°
2026-05-04 07:55 33.73002 -117.34636 29824 ft 572 kts 81°
2026-05-04 07:56 33.73888 -117.29965 30167 ft 577 kts 81°
2026-05-04 07:56 33.74780 -117.25248 30489 ft 579 kts 81°
2026-05-04 07:56 33.75395 -117.20489 30828 ft 574 kts 92°
2026-05-04 07:56 33.75332 -117.15709 31164 ft 568 kts 100°
2026-05-04 07:57 33.75038 -117.10981 31536 ft 569 kts 101°
2026-05-04 07:57 33.74791 -117.06220 31967 ft 572 kts 99°
2026-05-04 07:57 33.74650 -117.01488 32249 ft 576 kts 97°
2026-05-04 07:57 33.74566 -116.96675 32521 ft 578 kts 97°
2026-05-04 07:58 33.74473 -116.91399 32797 ft 581 kts 97°
2026-05-04 07:58 33.74371 -116.86532 33081 ft 581 kts 97°
2026-05-04 07:58 33.74260 -116.81695 33506 ft 578 kts 97°
2026-05-04 07:59 33.74146 -116.76877 34004 ft 576 kts 97°
2026-05-04 07:59 33.74029 -116.72073 34356 ft 574 kts 97°
2026-05-04 07:59 33.73910 -116.67268 34647 ft 575 kts 97°
2026-05-04 07:59 33.73789 -116.62465 34907 ft 575 kts 97°
2026-05-04 08:00 33.73668 -116.57670 35188 ft 574 kts 97°
2026-05-04 08:00 33.73550 -116.52935 35439 ft 575 kts 97°
2026-05-04 08:00 33.73424 -116.48114 35610 ft 579 kts 97°
2026-05-04 08:02 33.72503 -116.14306 37672 ft 582 kts 96°
2026-05-04 08:02 33.72383 -116.09431 37973 ft 583 kts 93°
2026-05-04 08:02 33.72749 -116.04573 38230 ft 589 kts 77°
2026-05-04 08:03 33.74088 -115.99308 38451 ft 589 kts 70°
2026-05-04 08:03 33.75482 -115.94684 38661 ft 589 kts 68°
2026-05-04 08:03 33.76913 -115.90067 38802 ft 590 kts 68°
2026-05-04 08:04 33.79692 -115.80768 38849 ft 590 kts 70°
2026-05-04 08:04 33.82291 -115.71464 38841 ft 585 kts 71°
2026-05-04 08:05 33.84820 -115.62170 38843 ft 585 kts 70°
2026-05-04 08:05 33.87337 -115.52934 38845 ft 585 kts 70°
2026-05-04 08:06 33.89881 -115.43628 38820 ft 584 kts 70°
2026-05-04 08:06 33.92417 -115.34337 38824 ft 584 kts 70°
2026-05-04 08:08 34.00967 -115.02743 38792 ft 583 kts 70°
2026-05-04 08:11 34.12146 -114.60857 38769 ft 583 kts 70°
2026-05-04 08:11 34.15831 -114.46837 38779 ft 583 kts 70°
2026-05-04 08:12 34.18278 -114.37487 38778 ft 583 kts 70°
2026-05-04 08:12 34.20700 -114.28207 38768 ft 583 kts 70°
2026-05-04 08:13 34.22079 -114.22909 38771 ft 583 kts 70°
2026-05-04 08:13 34.24489 -114.13627 38790 ft 582 kts 70°
2026-05-04 08:14 34.26906 -114.04285 38794 ft 582 kts 70°
2026-05-04 08:16 34.36498 -113.66875 38783 ft 581 kts 70°
2026-05-04 08:16 34.38859 -113.57586 38801 ft 581 kts 71°
2026-05-04 08:17 34.41234 -113.48213 38798 ft 583 kts 71°
2026-05-04 08:17 34.43603 -113.38825 38791 ft 583 kts 70°
2026-05-04 08:19 34.51847 -113.05881 38812 ft 582 kts 70°
2026-05-04 08:20 34.54181 -112.96481 38826 ft 581 kts 70°
2026-05-04 08:20 34.56500 -112.87104 38825 ft 580 kts 70°
2026-05-04 08:21 34.58815 -112.77712 38852 ft 580 kts 70°
2026-05-04 08:21 34.61120 -112.68328 38829 ft 580 kts 70°
2026-05-04 08:22 34.63407 -112.58979 38840 ft 580 kts 70°
2026-05-04 08:24 34.70275 -112.30695 39038 ft 582 kts 71°
2026-05-04 08:24 34.71417 -112.25962 39012 ft 582 kts 71°
2026-05-04 08:24 34.73691 -112.16513 38955 ft 583 kts 71°
2026-05-04 08:25 34.75943 -112.07104 38925 ft 582 kts 71°
2026-05-04 08:25 34.78199 -111.97659 38987 ft 581 kts 70°
2026-05-04 08:27 34.87108 -111.59998 38993 ft 575 kts 70°
2026-05-04 08:28 34.88201 -111.55336 38862 ft 574 kts 70°
2026-05-04 08:28 34.90386 -111.45992 38863 ft 573 kts 71°
2026-05-04 08:29 34.92561 -111.36658 38879 ft 572 kts 71°
2026-05-04 08:31 35.01216 -110.99155 38965 ft 577 kts 71°
2026-05-04 08:33 35.08770 -110.65930 39050 ft 582 kts 71°
2026-05-04 08:35 35.16250 -110.32565 38844 ft 583 kts 71°
2026-05-04 08:35 35.17316 -110.27771 38850 ft 583 kts 71°
2026-05-04 08:35 35.19437 -110.18208 38851 ft 583 kts 71°
2026-05-04 08:37 35.26778 -109.84797 38833 ft 581 kts 71°
2026-05-04 08:38 35.28243 -109.78073 38841 ft 581 kts 71°
2026-05-04 08:38 35.29879 -109.70537 38843 ft 581 kts 71°
2026-05-04 08:40 35.38102 -109.32291 38853 ft 580 kts 71°
2026-05-04 08:41 35.40137 -109.22728 38902 ft 579 kts 71°
2026-05-04 08:41 35.42157 -109.13194 38956 ft 579 kts 71°
2026-05-04 08:42 35.44175 -109.03634 38961 ft 579 kts 70°
2026-05-04 08:42 35.46186 -108.94059 39037 ft 579 kts 70°
2026-05-04 08:43 35.47559 -108.87548 39096 ft 578 kts 69°
2026-05-04 08:43 35.49501 -108.79903 39110 ft 575 kts 65°
2026-05-04 08:44 35.52072 -108.70569 38759 ft 579 kts 65°
2026-05-04 08:46 35.62301 -108.32656 38787 ft 588 kts 65°
2026-05-04 08:46 35.64834 -108.23113 38787 ft 587 kts 65°
2026-05-04 08:47 35.67354 -108.13592 38806 ft 588 kts 65°
2026-05-04 08:47 35.69877 -108.04035 38795 ft 587 kts 65°
2026-05-04 08:48 35.71549 -107.97678 38808 ft 586 kts 65°
2026-05-04 08:48 35.73626 -107.89759 38813 ft 585 kts 65°
2026-05-04 08:49 35.76117 -107.80230 38835 ft 585 kts 66°
2026-05-04 08:50 35.84806 -107.46734 38893 ft 591 kts 65°
2026-05-04 08:51 35.87290 -107.37069 38916 ft 592 kts 65°
2026-05-04 08:51 35.89779 -107.27349 38920 ft 594 kts 65°
2026-05-04 08:52 35.92261 -107.17624 38907 ft 595 kts 65°
2026-05-04 08:52 35.94737 -107.07883 38907 ft 595 kts 65°
2026-05-04 08:54 36.03240 -106.74156 38908 ft 597 kts 65°
2026-05-04 08:55 36.05278 -106.66000 38921 ft 598 kts 65°
2026-05-04 08:55 36.07726 -106.56171 38969 ft 600 kts 65°
2026-05-04 09:01 36.31675 -105.57933 39032 ft 593 kts 65°
2026-05-04 09:01 36.34009 -105.48136 39105 ft 591 kts 65°
2026-05-04 09:02 36.36333 -105.38360 39166 ft 590 kts 65°
2026-05-04 09:02 36.38645 -105.28585 39193 ft 590 kts 65°
2026-05-04 09:03 36.40442 -105.20965 39171 ft 589 kts 66°
2026-05-04 09:03 36.42064 -105.14061 39122 ft 587 kts 66°
2026-05-04 09:04 36.44340 -105.04345 39024 ft 585 kts 66°
2026-05-04 09:04 36.45476 -104.99477 38841 ft 585 kts 66°
2026-05-04 09:04 36.46604 -104.94632 38846 ft 585 kts 66°
2026-05-04 09:05 36.48864 -104.84910 38831 ft 584 kts 66°
2026-05-04 09:05 36.51107 -104.75222 38830 ft 583 kts 66°
2026-05-04 09:06 36.53340 -104.65531 38830 ft 582 kts 66°
2026-05-04 09:07 36.61077 -104.31648 38967 ft 582 kts 67°
2026-05-04 09:08 36.61657 -104.29086 38942 ft 582 kts 67°
2026-05-04 09:08 36.63320 -104.21724 38883 ft 580 kts 67°
2026-05-04 09:09 36.65471 -104.12147 38829 ft 567 kts 67°
2026-05-04 09:09 36.67585 -104.02715 38807 ft 567 kts 67°
2026-05-04 09:10 36.69711 -103.93241 38816 ft 569 kts 67°
2026-05-04 09:10 36.71836 -103.83709 38791 ft 570 kts 68°
2026-05-04 09:11 36.73903 -103.74341 38775 ft 558 kts 68°
2026-05-04 09:11 36.75963 -103.65002 38784 ft 560 kts 68°
2026-05-04 09:12 36.78033 -103.55608 38774 ft 561 kts 68°
2026-05-04 09:14 36.85240 -103.22494 38748 ft 556 kts 68°
2026-05-04 09:14 36.87252 -103.13168 38769 ft 555 kts 68°
2026-05-04 09:15 36.89238 -103.03928 38734 ft 554 kts 68°
2026-05-04 09:15 36.91228 -102.94631 38749 ft 554 kts 68°
2026-05-04 09:17 37.00116 -102.52603 38706 ft 555 kts 68°
2026-05-04 09:18 37.01147 -102.47671 38701 ft 555 kts 68°
2026-05-04 09:18 37.03099 -102.38312 38719 ft 555 kts 68°
2026-05-04 09:19 37.05044 -102.28947 38703 ft 555 kts 68°
2026-05-04 09:19 37.06981 -102.19576 38697 ft 555 kts 68°
2026-05-04 09:20 37.08908 -102.10215 38784 ft 555 kts 68°
2026-05-04 09:20 37.10828 -102.00850 38865 ft 556 kts 68°
2026-05-04 09:21 37.12741 -101.91483 38827 ft 557 kts 68°
2026-05-04 09:21 37.14656 -101.82052 38816 ft 557 kts 68°
2026-05-04 09:22 37.16566 -101.72618 38861 ft 561 kts 68°
2026-05-04 09:22 37.17522 -101.67880 39081 ft 561 kts 68°
2026-05-04 09:22 37.18464 -101.63190 39470 ft 557 kts 69°
2026-05-04 09:23 37.18865 -101.61184 39647 ft 555 kts 69°
2026-05-04 09:23 37.19373 -101.58647 39860 ft 553 kts 69°
2026-05-04 09:23 37.20306 -101.53975 40221 ft 550 kts 69°
2026-05-04 09:23 37.21235 -101.49320 40510 ft 549 kts 69°
2026-05-04 09:25 37.27698 -101.16711 40742 ft 545 kts 70°
2026-05-04 09:25 37.28591 -101.12160 40745 ft 544 kts 70°
2026-05-04 09:26 37.30402 -101.02915 40749 ft 544 kts 70°
2026-05-04 09:26 37.32204 -100.93674 40758 ft 546 kts 70°
2026-05-04 09:27 37.34005 -100.84395 40758 ft 548 kts 70°
2026-05-04 09:27 37.35806 -100.75070 40755 ft 549 kts 70°
2026-05-04 09:28 37.36683 -100.70510 40753 ft 550 kts 70°
2026-05-04 09:28 37.38464 -100.61219 40755 ft 551 kts 70°
2026-05-04 09:29 37.40254 -100.51839 40761 ft 551 kts 71°
2026-05-04 09:29 37.42037 -100.42450 40750 ft 550 kts 71°
2026-05-04 09:30 37.43804 -100.33104 40739 ft 548 kts 71°
2026-05-04 09:30 37.45559 -100.23781 40743 ft 547 kts 71°
2026-05-04 09:31 37.47297 -100.14514 40765 ft 546 kts 71°
2026-05-04 09:31 37.49041 -100.05164 40747 ft 545 kts 71°
2026-05-04 09:32 37.50628 -99.95881 40762 ft 547 kts 74°
2026-05-04 09:34 37.54952 -99.62802 40734 ft 547 kts 75°
2026-05-04 09:34 37.56196 -99.53342 40730 ft 547 kts 75°
2026-05-04 09:35 37.57436 -99.43868 40755 ft 547 kts 75°
2026-05-04 09:35 37.58662 -99.34408 40735 ft 546 kts 76°
2026-05-04 09:37 37.63419 -98.97085 40763 ft 536 kts 76°
2026-05-04 09:38 37.63955 -98.92817 40771 ft 536 kts 76°
2026-05-04 09:38 37.65111 -98.83581 40795 ft 536 kts 76°
2026-05-04 09:39 37.66268 -98.74266 40790 ft 537 kts 76°
2026-05-04 09:39 37.67419 -98.64942 40787 ft 538 kts 77°
2026-05-04 09:40 37.68561 -98.55619 40768 ft 537 kts 77°
2026-05-04 09:40 37.69694 -98.46306 40757 ft 536 kts 77°
2026-05-04 09:42 37.74137 -98.09188 40718 ft 532 kts 77°
2026-05-04 09:43 37.74491 -98.06188 40719 ft 532 kts 77°
2026-05-04 09:43 37.75577 -97.96937 40731 ft 532 kts 77°
2026-05-04 09:44 37.76655 -97.87691 40735 ft 531 kts 77°
2026-05-04 09:46 37.80874 -97.50849 40752 ft 529 kts 78°
2026-05-04 09:46 37.81911 -97.41632 40779 ft 529 kts 78°
2026-05-04 09:47 37.82938 -97.32439 40792 ft 528 kts 78°
2026-05-04 09:49 37.86378 -97.01142 40791 ft 528 kts 78°
2026-05-04 09:51 37.90526 -96.69139 40793 ft 525 kts 72°
2026-05-04 09:51 37.92173 -96.60099 40785 ft 525 kts 72°
2026-05-04 09:52 37.93772 -96.51124 40763 ft 525 kts 73°
2026-05-04 09:52 37.95347 -96.42101 40774 ft 525 kts 73°
2026-05-04 09:53 37.96559 -96.35096 40759 ft 525 kts 73°
2026-05-04 09:53 37.97499 -96.29645 40758 ft 524 kts 73°
2026-05-04 09:54 37.99045 -96.20659 40763 ft 524 kts 73°
2026-05-04 09:54 38.00591 -96.11633 40760 ft 524 kts 73°
2026-05-04 09:55 38.02131 -96.02606 40766 ft 524 kts 73°
2026-05-04 09:55 38.03666 -95.93558 40771 ft 523 kts 73°
2026-05-04 09:56 38.05181 -95.84586 40780 ft 524 kts 73°
2026-05-04 09:56 38.06701 -95.75538 40772 ft 523 kts 74°
2026-05-04 09:57 38.08213 -95.66494 40778 ft 523 kts 74°
2026-05-04 09:57 38.09717 -95.57450 40753 ft 523 kts 74°
2026-05-04 09:58 38.10845 -95.50639 40758 ft 523 kts 74°
2026-05-04 09:58 38.11899 -95.44254 40757 ft 523 kts 74°
2026-05-04 10:00 38.17804 -95.08035 40766 ft 524 kts 75°
2026-05-04 10:04 38.27118 -94.49381 40774 ft 524 kts 74°
2026-05-04 10:04 38.29015 -94.40449 40786 ft 521 kts 69°
2026-05-04 10:05 38.31083 -94.31603 40786 ft 521 kts 69°
2026-05-04 10:05 38.33127 -94.22795 40791 ft 521 kts 69°
2026-05-04 10:06 38.35149 -94.13916 40794 ft 521 kts 70°
2026-05-04 10:06 38.37150 -94.05031 40788 ft 522 kts 70°
2026-05-04 10:08 38.43047 -93.78647 40812 ft 521 kts 70°
2026-05-04 10:08 38.45023 -93.69747 40819 ft 521 kts 70°
2026-05-04 10:09 38.46994 -93.60834 40808 ft 521 kts 70°
2026-05-04 10:09 38.48955 -93.51931 40806 ft 521 kts 70°
2026-05-04 10:10 38.50899 -93.43067 40819 ft 521 kts 70°
2026-05-04 10:10 38.52847 -93.34151 40823 ft 521 kts 70°
2026-05-04 10:11 38.54788 -93.25232 40818 ft 521 kts 70°
2026-05-04 10:11 38.56714 -93.16344 40818 ft 521 kts 71°
2026-05-04 10:12 38.58640 -93.07420 40815 ft 521 kts 71°
2026-05-04 10:12 38.60561 -92.98487 40820 ft 521 kts 71°
2026-05-04 10:13 38.61451 -92.94337 40821 ft 522 kts 71°
2026-05-04 10:13 38.63358 -92.85414 40831 ft 522 kts 71°
2026-05-04 10:14 38.65267 -92.76441 40816 ft 522 kts 71°
2026-05-04 10:16 38.72808 -92.40639 40830 ft 521 kts 71°
2026-05-04 10:16 38.74678 -92.31663 40837 ft 520 kts 71°
2026-05-04 10:17 38.76541 -92.22692 40842 ft 521 kts 71°
2026-05-04 10:19 38.82923 -91.91658 40833 ft 521 kts 71°
2026-05-04 10:19 38.84754 -91.82668 40830 ft 521 kts 71°
2026-05-04 10:20 38.86580 -91.73664 40832 ft 522 kts 72°
2026-05-04 10:20 38.88407 -91.64618 40857 ft 522 kts 72°
2026-05-04 10:21 38.90223 -91.55588 40830 ft 522 kts 72°
2026-05-04 10:21 38.92031 -91.46556 40831 ft 522 kts 72°
2026-05-04 10:22 38.94730 -91.33001 40825 ft 521 kts 72°
2026-05-04 10:23 38.95914 -91.27026 40824 ft 521 kts 72°
2026-05-04 10:25 39.02632 -90.92788 40824 ft 521 kts 72°
2026-05-04 10:25 39.04379 -90.83788 40822 ft 521 kts 72°
2026-05-04 10:26 39.06128 -90.74741 40850 ft 521 kts 72°
2026-05-04 10:26 39.07872 -90.65681 40843 ft 522 kts 72°
2026-05-04 10:27 39.09616 -90.56578 40839 ft 523 kts 72°
2026-05-04 10:27 39.11338 -90.47544 40841 ft 523 kts 72°
2026-05-04 10:28 39.12462 -90.41625 40858 ft 523 kts 72°
2026-05-04 10:28 39.13736 -90.34900 40857 ft 523 kts 72°
2026-05-04 10:29 39.15161 -90.27341 40833 ft 521 kts 72°
2026-05-04 10:29 39.16866 -90.18265 40831 ft 520 kts 72°
2026-05-04 10:30 39.18832 -90.07748 40836 ft 518 kts 72°
2026-05-04 10:30 39.20230 -90.00238 40839 ft 518 kts 72°
2026-05-04 10:31 39.21906 -89.91200 40828 ft 519 kts 73°
2026-05-04 10:32 39.27739 -89.59390 40838 ft 521 kts 73°
2026-05-04 10:33 39.28384 -89.55838 40832 ft 522 kts 73°
2026-05-04 10:33 39.30038 -89.46702 40836 ft 522 kts 73°
2026-05-04 10:34 39.31695 -89.37505 40839 ft 522 kts 73°
2026-05-04 10:34 39.33334 -89.28364 40836 ft 522 kts 73°
2026-05-04 10:35 39.34965 -89.19222 40874 ft 521 kts 73°
2026-05-04 10:35 39.36587 -89.10092 40841 ft 521 kts 73°
2026-05-04 10:36 39.38192 -89.01005 40838 ft 519 kts 73°
2026-05-04 10:36 39.39793 -88.91902 40840 ft 518 kts 73°
2026-05-04 10:37 39.41382 -88.82823 40848 ft 517 kts 73°
2026-05-04 10:37 39.42965 -88.73740 40839 ft 517 kts 73°
2026-05-04 10:39 39.47413 -88.47957 40814 ft 518 kts 74°
2026-05-04 10:40 39.48970 -88.38848 40804 ft 518 kts 74°
2026-05-04 10:40 39.50519 -88.29736 40799 ft 518 kts 74°
2026-05-04 10:41 39.52061 -88.20619 40799 ft 518 kts 74°
2026-05-04 10:41 39.53598 -88.11488 40834 ft 518 kts 74°
2026-05-04 10:42 39.55126 -88.02368 40822 ft 518 kts 75°
2026-05-04 10:42 39.56650 -87.93215 40844 ft 518 kts 75°
2026-05-04 10:43 39.57783 -87.86387 40838 ft 517 kts 75°
2026-05-04 10:45 39.63302 -87.52725 40833 ft 514 kts 75°
2026-05-04 10:45 39.64773 -87.43640 40835 ft 515 kts 75°
2026-05-04 10:46 39.66238 -87.34548 40845 ft 515 kts 75°
2026-05-04 10:46 39.67697 -87.25446 40849 ft 515 kts 75°
2026-05-04 10:47 39.69150 -87.16331 40854 ft 516 kts 75°
2026-05-04 10:47 39.70596 -87.07211 40856 ft 516 kts 75°
2026-05-04 10:49 39.75547 -86.75610 40853 ft 516 kts 76°
2026-05-04 10:50 39.76961 -86.66473 40859 ft 516 kts 76°
2026-05-04 10:52 39.83315 -86.30364 40858 ft 507 kts 65°
2026-05-04 10:52 39.85943 -86.21838 40871 ft 508 kts 64°
2026-05-04 10:54 39.94763 -85.92598 40866 ft 511 kts 65°
2026-05-04 10:56 40.04971 -85.58046 40873 ft 509 kts 65°
2026-05-04 10:57 40.07505 -85.49404 40871 ft 509 kts 65°
2026-05-04 10:57 40.10027 -85.40773 40860 ft 509 kts 65°
2026-05-04 10:58 40.11778 -85.34764 40854 ft 509 kts 65°
2026-05-04 10:58 40.13667 -85.28267 40870 ft 509 kts 65°
2026-05-04 10:59 40.16182 -85.19593 40887 ft 510 kts 65°
2026-05-04 10:59 40.18690 -85.10912 40875 ft 510 kts 65°
2026-05-04 11:00 40.21178 -85.02269 40864 ft 510 kts 65°
2026-05-04 11:02 40.31118 -84.67459 40865 ft 510 kts 66°
2026-05-04 11:05 40.48089 -84.06913 40870 ft 511 kts 66°
2026-05-04 11:06 40.50507 -83.98191 40886 ft 511 kts 66°
2026-05-04 11:06 40.53028 -83.89474 40896 ft 510 kts 65°
2026-05-04 11:10 40.69334 -83.33536 40881 ft 509 kts 59°
2026-05-04 11:12 40.83733 -83.07554 40892 ft 503 kts 47°
2026-05-04 11:12 40.85882 -83.03905 40889 ft 503 kts 47°
2026-05-04 11:12 40.89453 -82.97811 40889 ft 504 kts 47°
2026-05-04 11:13 40.91365 -82.94539 40887 ft 504 kts 47°
2026-05-04 11:13 40.95650 -82.87195 40883 ft 504 kts 48°
2026-05-04 11:16 41.16655 -82.49429 40881 ft 511 kts 58°
2026-05-04 11:16 41.19959 -82.41065 40862 ft 511 kts 58°
2026-05-04 11:17 41.23271 -82.32711 40843 ft 511 kts 58°
2026-05-04 11:19 41.34669 -82.04119 40859 ft 513 kts 62°
2026-05-04 11:19 41.37415 -81.95314 40832 ft 515 kts 65°
2026-05-04 11:20 41.40048 -81.86439 40829 ft 515 kts 65°
2026-05-04 11:20 41.42693 -81.77568 40837 ft 515 kts 65°
2026-05-04 11:22 41.53314 -81.42177 40852 ft 515 kts 65°
2026-05-04 11:23 41.54677 -81.37597 40852 ft 515 kts 65°
2026-05-04 11:25 41.63891 -81.06442 40848 ft 515 kts 65°
2026-05-04 11:25 41.66512 -80.97512 40870 ft 515 kts 65°
2026-05-04 11:27 41.78205 -80.57287 40865 ft 516 kts 66°
2026-05-04 11:28 41.79494 -80.52816 40866 ft 516 kts 66°
2026-05-04 11:28 41.82080 -80.43820 40875 ft 516 kts 66°
2026-05-04 11:29 41.84654 -80.34832 40872 ft 516 kts 66°
2026-05-04 11:29 41.87206 -80.25889 40853 ft 516 kts 66°
2026-05-04 11:33 42.03695 -79.67340 40879 ft 516 kts 67°
2026-05-04 11:33 42.06206 -79.58299 40870 ft 516 kts 67°
2026-05-04 11:34 42.08712 -79.49247 40873 ft 516 kts 67°
2026-05-04 11:34 42.11211 -79.40189 40875 ft 516 kts 67°
2026-05-04 11:35 42.13707 -79.31106 40882 ft 517 kts 67°
2026-05-04 11:35 42.16200 -79.22006 40872 ft 517 kts 67°
2026-05-04 11:36 42.17339 -79.17416 40862 ft 518 kts 75°